Home   Weather   Ponta Delgada   Past weeks

Flag for Portugal Past Weather in Ponta Delgada, Azores, Portugal — Yesterday and Last 2 Weeks

66 °F

Passing clouds.

Feels Like: 66 °F
Forecast: N/A
Wind: 16 mph from Northeast

Location: Ponta Delgada / Nordela Acores

Current Time: Oct 26, 2016 at 9:32:11 PM

Latest Report: Oct 26, 2016 at 9:00 PM

Visibility: N/A

Pressure: 30.09 "Hg

Humidity: 83%

Dew Point: 61 °F

Location of Ponta DelgadaLocation

Past Weather in Ponta Delgada — Graph


Ponta Delgada Temperature Yesterday

Maximum temperature yesterday: 68 °F (at 2:30 PM)
Minimum temperature yesterday: 61 °F (at 3:00 AM)
Average temperature yesterday: 64 °F

High & Low Weather Summary for the Past Weeks

High72 °F (Oct 12, 2:30 PM)100% (Oct 20, 1:30 AM)30.24 "Hg (Oct 20, 1:30 AM)
Low55 °F (Oct 23, 6:00 AM)42% (Oct 23, 3:30 PM)29.80 "Hg (Oct 23, 7:30 PM)
Average65 °F71%30.03 "Hg
* Reported Oct 11 8:00 PM — Oct 26 8:00 PM, Ponta Delgada, Weather by CustomWeather, © 2016

Note: Actual official high and low records may vary slightly from our data, if they occured in-between our weather recording intervals... More about our weather records


Ponta Delgada Weather History for the Previous 24 Hours

Scroll right to see more
Time TempWeatherWind HumidityBarometerVisibility
8:00 PM
Wed, Oct 26
66 °FPassing clouds.18 mph83%30.09 "HgN/A
7:30 PM66 °FPassing clouds.16 mph83%30.09 "HgN/A
7:00 PM66 °FPassing clouds.15 mph83%30.09 "HgN/A
6:30 PM66 °FScattered clouds.14 mph83%30.07 "HgN/A
6:00 PM66 °FScattered clouds.14 mph83%30.07 "HgN/A
5:30 PM66 °FScattered clouds.18 mph83%30.07 "HgN/A
5:00 PM68 °FScattered clouds.17 mph78%30.07 "HgN/A
4:30 PM68 °FScattered clouds.22 mph83%30.07 "HgN/A
4:00 PM66 °FScattered clouds.20 mph88%30.07 "HgN/A
3:30 PM66 °FBroken clouds.20 mph83%30.07 "HgN/A
3:00 PM66 °FSprinkles. Broken clouds.20 mph83%30.07 "HgN/A
2:30 PM66 °FBroken clouds.22 mph88%30.09 "HgN/A
2:00 PM64 °FSprinkles. Broken clouds.18 mph88%30.09 "HgN/A
1:30 PM66 °FSprinkles. Broken clouds.20 mph83%30.09 "HgN/A
1:00 PM64 °FSprinkles. Broken clouds.23 mph88%30.09 "HgN/A
12:30 PM66 °FScattered showers. Broken clouds.18 mph78%30.12 "HgN/A
12:00 PM66 °FScattered showers. Broken clouds.18 mph78%30.12 "HgN/A
11:30 AM66 °FScattered showers. Partly sunny.21 mph73%30.12 "HgN/A
11:00 AM66 °FPartly sunny.22 mph73%30.12 "HgN/A
10:30 AM66 °FPartly sunny.20 mph73%30.12 "HgN/A
10:00 AM64 °FPartly sunny.18 mph73%30.12 "HgN/A
9:30 AM64 °FPartly sunny.21 mph73%30.12 "HgN/A
9:00 AM64 °FPartly sunny.16 mph73%30.12 "HgN/A
8:30 AM64 °FScattered clouds.15 mph68%30.09 "HgN/A
8:00 AM64 °FPassing clouds.12 mph68%30.09 "HgN/A
7:30 AM64 °FPassing clouds.18 mph73%30.09 "HgN/A
7:00 AM63 °FPassing clouds.13 mph73%30.09 "HgN/A
6:30 AM63 °FPassing clouds.15 mph73%30.09 "HgN/A
6:00 AM63 °FPassing clouds.14 mph73%30.09 "HgN/A
5:30 AM63 °FPassing clouds.16 mph68%30.09 "HgN/A
5:00 AM63 °FPassing clouds.15 mph73%30.09 "HgN/A
4:30 AM63 °FPassing clouds.15 mph68%30.09 "HgN/A
4:00 AM63 °FPassing clouds.14 mph68%30.09 "HgN/A
3:30 AM63 °FPassing clouds.15 mph68%30.09 "HgN/A
3:00 AM63 °FPassing clouds.15 mph64%30.09 "HgN/A
2:30 AM63 °FPassing clouds.15 mph73%30.09 "HgN/A
2:00 AM63 °FPassing clouds.16 mph73%30.09 "HgN/A
1:30 AM63 °FPassing clouds.16 mph73%30.09 "HgN/A
1:00 AM64 °FPassing clouds.15 mph68%30.09 "HgN/A
12:30 AM63 °FPassing clouds.15 mph73%30.09 "HgN/A
12:00 AM64 °FPassing clouds.17 mph68%30.09 "HgN/A
11:30 PM
Tue, Oct 25
63 °FPassing clouds.14 mph73%30.12 "HgN/A
11:00 PM64 °FPassing clouds.14 mph68%30.12 "HgN/A
10:30 PM63 °FPassing clouds.14 mph73%30.12 "HgN/A
10:00 PM63 °FPassing clouds.15 mph73%30.12 "HgN/A
9:30 PM63 °FPassing clouds.15 mph73%30.12 "HgN/A
9:00 PM64 °FPassing clouds.15 mph68%30.12 "HgN/A
Weather by CustomWeather, © 2016

See weather overviewHow to use our weather pages